This is the latest recevied weather packets stored in our database for station/object AC2VK-1. If no packets are shown the sender has not sent any weather packets the latest 1 day(s).
| Time | Temp. | Humidity | Pressure | Rain* | Wind** | Luminosity | Snow |
|---|---|---|---|---|---|---|---|
| 1778107153 | 18.33° C | 91% | 1013.1 hPa | 0.76 mm | - | - | - |
| 1778106553 | 18.33° C | 91% | 1012.7 hPa | 1.02 mm | - | - | - |
| 1778105953 | 18.33° C | 92% | 1012.9 hPa | 1.27 mm | - | - | - |
| 1778105353 | 18.89° C | 92% | 1013.1 hPa | 1.27 mm | - | - | - |
| 1778104153 | 18.89° C | 90% | 1012.8 hPa | 0.76 mm | - | - | - |
| 1778102953 | 19.44° C | 90% | 1012.5 hPa | 0.25 mm | - | - | - |
| 1778102353 | 19.44° C | 91% | 1011.8 hPa | 0.25 mm | - | - | - |
| 1778101753 | 19.44° C | 92% | 1011.2 hPa | 1.02 mm | - | - | - |
| 1778101153 | 19.44° C | 92% | 1011.7 hPa | 1.27 mm | - | - | - |
| 1778100553 | 18.89° C | 93% | 1011.8 hPa | 1.27 mm | - | - | - |
| 1778099353 | 18.89° C | 92% | 1012.5 hPa | 2.29 mm | - | - | - |
| 1778098753 | 18.89° C | 92% | 1012.8 hPa | 2.03 mm | - | - | - |
| 1778098153 | 18.89° C | 92% | 1013.1 hPa | 1.27 mm | - | - | - |
| 1778096953 | 19.44° C | 92% | 1013 hPa | 1.52 mm | - | - | - |
| 1778095153 | 19.44° C | 90% | 1013.5 hPa | 0.51 mm | - | - | - |
| 1778078354 | 17.22° C | 94% | 1014.6 hPa | 3.81 mm | - | - | - |
| 1778077754 | 17.22° C | 94% | 1014.4 hPa | 4.06 mm | - | - | - |
| 1778077154 | 17.22° C | 94% | 1014.2 hPa | 5.84 mm | - | - | - |
| 1778076554 | 17.22° C | 94% | 1014.7 hPa | 6.1 mm | - | - | - |
| 1778075954 | 17.22° C | 94% | 1014.5 hPa | 6.1 mm | - | - | - |
| 1778075354 | 17.22° C | 94% | 1014.1 hPa | 5.84 mm | - | - | - |
| 1778074754 | 17.22° C | 93% | 1013.8 hPa | 5.84 mm | - | - | - |
| 1778074154 | 17.22° C | 93% | 1013.9 hPa | 5.59 mm | - | - | - |
| 1778073554 | 17.78° C | 92% | 1014 hPa | 3.81 mm | - | - | - |
| 1778072354 | 17.78° C | 91% | 1013.6 hPa | 1.78 mm | - | - | - |
* Rain latest hour (hover to see other rain measurements)
** Current wind speed in m/s (hover to see current wind gust speed)